Location: Unspecified
(50.0000°N, 15.0000°E)
Time: 14:22:57
(UTC+01:00)

ISS - Visible Passes

Search period start: 21 January 2019 00:00
Search period end: 31 January 2019 00:00
Orbit: 404 x 410 km, 51.6° (Epoch: 22 January)

Date Brightness Start Highest point End Pass type
(mag) Time Alt. Az. Time Alt. Az. Time Alt. Az.
23 Jan -1.9 18:39:16 10° SSW 18:41:05 21° SSE 18:41:05 21° SSE visible
24 Jan -1.7 17:48:52 10° S 17:50:48 15° SE 17:52:04 12° ESE visible
24 Jan -1.4 19:23:35 10° WSW 19:24:48 21° SW 19:24:48 21° SW visible
25 Jan -3.2 18:32:26 10° SW 18:35:34 42° SSE 18:35:43 42° SE visible
26 Jan -2.5 17:41:27 10° SSW 17:44:19 28° SE 17:46:33 14° E visible
26 Jan -2.1 19:17:19 10° WSW 19:19:16 33° WSW 19:19:16 33° WSW visible
27 Jan -3.8 18:25:58 10° WSW 18:29:15 73° SSE 18:30:03 47° E visible
27 Jan -0.2 20:02:36 10° W 20:02:46 11° W 20:02:46 11° W visible
28 Jan -3.3 17:34:42 10° SW 17:37:55 50° SSE 17:40:47 12° E visible
28 Jan -2.6 19:11:08 10° W 19:13:30 42° WNW 19:13:30 42° WNW visible
29 Jan -3.8 18:19:41 10° W 18:23:00 78° N 18:24:13 36° ENE visible
29 Jan -0.5 19:56:23 10° WNW 19:56:55 14° WNW 19:56:55 14° WNW visible
30 Jan -3.8 17:28:15 10° WSW 17:31:34 83° SSE 17:34:52 10° ENE visible
30 Jan -3.0 19:04:56 10° W 19:07:36 50° NW 19:07:36 50° NW visible
